Tracking 30415 objects as of 14-May-2025
HD Live streaming from Space Station
objects crossing your sky now

COSMOS 1153

Track COSMOS 1153 now!
10-day predictions
COSMOS 1153 is classified as:


NORAD ID: 11680
Int'l Code: 1980-007A
Perigee: 965.4 km
Apogee: 1,020.5 km
Inclination: 82.9 °
Period: 104.8 minutes
Semi major axis: 7363 km
RCS: 3.444 m2 (large)
Launch date: January 25, 1980
Source: Commonwealth of Independent States (former USSR) (CIS)
Launch site: PLESETSK MISSILE AND SPACE COMPLEX (PKMTR)
Your satellite tracking list
Your tracking list is empty




NASA's NSSDC Master Catalog

Two Line Element Set (TLE):
1 11680U 80007A   25133.89556941  .00000059  00000-0  47105-4 0  9997
2 11680  82.9297 106.0916 0037413  10.1089  48.7276 13.73828690267685
Source of the keplerian elements: AFSPC